Simultaneous Nadir Overpasses (SNOs) Predictions

Prediction of SNOs between AQUA and METOP-A Satellite Orbit:

Table of predicted SNOs for the next 14.0 days since TLE Epoch: 10/18/2013
Index Date (AQUA) Time (AQUA) Lat,Lon (AQUA) SZA (AQUA ) Date (METOP-A) Time (METOP-A) Lat,Lon (METOP-A) SZA (METOP-A ) Distance(km) Time Diff (sec)
1 10/20/2013 17:15:43 -73.52, 95.93 96.00 10/20/2013 17:14:33 -73.45, 94.55 96.05 44.50 70
2 10/20/2013 18:05:17 73.85, -97.16 84.36 10/20/2013 18:05:05 73.84, -97.21 84.34 2.53 12
3 10/20/2013 18:54:44 -73.94, 70.30 95.55 10/20/2013 18:55:45 -73.92, 70.32 95.56 1.62 61
4 10/23/2013 12:49:57 -73.81, 161.76 94.71 10/23/2013 12:48:47 -73.82, 161.81 94.70 1.84 70
5 10/23/2013 13:39:25 73.84, -30.66 85.34 10/23/2013 13:39:26 73.85, -30.77 85.35 3.55 1
6 10/23/2013 14:28:52 -73.92, 136.80 94.57 10/23/2013 14:30:06 -73.95, 136.78 94.55 2.63 74
7 10/26/2013 08:24:06 -73.84,-131.84 93.71 10/26/2013 08:23:09 -73.83,-131.75 93.72 3.06 57
8 10/26/2013 09:13:34 73.87, 35.74 86.34 10/26/2013 09:13:48 73.86, 35.66 86.33 2.53 14
9 10/26/2013 10:03:11 -74.46,-158.00 93.04 10/26/2013 10:04:18 -74.45,-155.54 93.08 73.15 67
10 10/29/2013 03:58:13 -73.81, -65.29 92.80 10/29/2013 03:57:31 -73.84, -65.32 92.76 3.53 42
11 10/29/2013 04:47:42 73.89, 102.16 87.30 10/29/2013 04:48:09 73.91, 102.19 87.33 2.49 27
12 10/31/2013 23:32:19 -73.82, 1.16 91.87 10/31/2013 23:31:52 -73.84, 1.08 91.85 3.27 27
13 11/01/2013 00:21:48 73.90, 168.60 88.23 11/01/2013 00:22:30 73.91, 168.58 88.24 0.69 42




NCC Satellite Simultaneous Nadir Overpasses (SNOs) Prediction Service
